星链-34922 (STARLINK-34922)

导读

STARLINK-34922是美国SpaceX星链星座的卫星,于2025年8月22日发射升空,属于Starlink Gen2组别,星链是全球低轨卫星互联网星座项目,卫星主要部署在近地轨道运行,承担为全球提供高速互联网接入服务任务,尤其覆盖偏远和网络基础设施匮乏地区。

基本信息
目录编号:
65273
目录名称:
STARLINK-34922
国际标识:
2025-184A
轨道中心:
EARTH
卫星名称:
星链-34922
卫星全名:
星链-34922 (STARLINK-34922)
卫星状态:
在轨 (已飞行295 天)
发射日期:
2025-08-22 UTC
国别 :
美国 (US)
星等 :
--
轨道信息
数据来源 国际轨道数据 AOE轨道数据
星历时间 2026-06-13T11:06:17+0800
12小时前
查看轨道信息
2026-06-09T00:00:00+0800
5天前
查看轨道信息
半长轴 6927.614km 6927.731km
偏心率 0.0001469 0.0000968
轨道倾角 97.365° 97.392°
近地点辐角 126.023° 128.781°
升交点赤经 215.912° 211.647°
平近点角 234.113° 177.137°
近地点 548.459km 548.923km
远地点 550.495km 550.265km
周期 95.639分钟 95.641分钟
每日圈数 15.056612 15.056231
详细信息
固有亮度:
5
最大亮度:
2.5
卫星平台:
Starlink V1.0
覆盖范围:
全球
运营商:
太空探索技术公司
运营商所在国:
美国
制造商(研发单位):
太空探索技术公司
制造商所在国:
美国
使用方式:
暂无
卫星简介
Starlink 计划是 SpaceX 推出的全球卫星互联网项目,通过发射低轨道卫星,为全球尤其是偏远地区提供高速、低延迟的互联网服务。自 2019 年起,Starlink 已部署数千颗卫星,旨在缩小全球数字鸿沟,推动互联网普及。该项目还为军事、航空等行业提供通信支持,带来广泛经济效益。
2D轨道图
3D轨道图
轨道高度分析图
轨道倾角分析图
轨道综合分析图
查看轨道综合分析图